Time,TemperatureF,DewpointF,PressureIn,WindDirection,WindDirectionDegrees,WindSpeedMPH,WindSpeedGustMPH,Humidity,HourlyPrecipIn,Conditions,Clouds,dailyrainin,SoftwareType,DateUTC
2013-03-11 00:03:00,36.0,29.0,29.61,North,0,0.0,1.0,77,0.01,,,0.98,,2013-03-11 05:03:00,
2013-03-11 00:12:00,36.0,29.0,29.61,North,0,0.0,1.0,77,0.01,,,0.98,,2013-03-11 05:12:00,
2013-03-11 00:22:00,35.0,29.0,29.61,North,0,0.0,1.0,77,0.01,,,0.98,,2013-03-11 05:22:00,
2013-03-11 00:32:00,35.0,29.0,29.61,North,0,0.0,1.0,77,0.01,,,0.98,,2013-03-11 05:32:00,
2013-03-11 00:42:00,35.0,29.0,29.61,North,0,0.0,1.0,77,0.01,,,0.98,,2013-03-11 05:42:00,
2013-03-11 00:52:00,35.0,29.0,29.60,North,0,0.0,1.0,77,0.01,,,0.98,,2013-03-11 05:52:00,
2013-03-11 01:02:00,35.0,29.0,29.61,North,0,0.0,1.0,77,0.01,,,0.98,,2013-03-11 06:02:00,
2013-03-11 01:12:00,35.0,29.0,29.61,North,0,0.0,1.0,77,0.01,,,0.98,,2013-03-11 06:12:00,
2013-03-11 01:22:00,35.0,29.0,29.60,North,0,0.0,1.0,77,0.00,,,0.97,,2013-03-11 06:22:00,
2013-03-11 01:32:00,35.0,29.0,29.60,North,0,0.0,0.0,77,0.00,,,0.97,,2013-03-11 06:32:00,
2013-03-11 01:42:00,35.0,29.0,29.60,North,0,0.0,0.0,77,0.00,,,0.97,,2013-03-11 06:42:00,
2013-03-11 01:53:00,35.0,29.0,29.60,North,0,0.0,0.0,77,0.00,,,0.97,,2013-03-11 06:53:00,
2013-03-11 02:02:00,35.0,29.0,29.60,North,0,0.0,0.0,77,0.00,,,0.97,,2013-03-11 07:02:00,
2013-03-11 02:12:00,35.0,29.0,29.59,North,0,0.0,0.0,77,0.00,,,0.97,,2013-03-11 07:12:00,
2013-03-11 02:22:00,35.0,29.0,29.59,North,0,0.0,0.0,77,0.00,,,0.97,,2013-03-11 07:22:00,
2013-03-11 02:32:00,35.0,29.0,29.59,North,0,0.0,0.0,77,0.00,,,0.96,,2013-03-11 07:32:00,
2013-03-11 02:42:00,35.0,29.0,29.59,North,0,0.0,0.0,77,0.00,,,0.96,,2013-03-11 07:42:00,
2013-03-11 02:52:00,34.0,28.0,29.59,North,0,0.0,0.0,77,0.00,,,0.95,,2013-03-11 07:52:00,
2013-03-11 03:02:00,34.0,28.0,29.58,North,0,0.0,0.0,77,0.00,,,0.92,,2013-03-11 08:02:00,
2013-03-11 03:12:00,34.0,28.0,29.58,North,0,0.0,0.0,77,0.00,,,0.92,,2013-03-11 08:12:00,
2013-03-11 03:22:00,34.0,28.0,29.58,North,0,0.0,0.0,77,0.00,,,0.90,,2013-03-11 08:22:00,
2013-03-11 03:32:00,34.0,28.0,29.59,North,0,0.0,4.0,77,0.00,,,0.88,,2013-03-11 08:32:00,
2013-03-11 03:42:00,34.0,28.0,29.59,North,0,0.0,4.0,77,0.00,,,0.88,,2013-03-11 08:42:00,
2013-03-11 03:52:00,34.0,28.0,29.59,North,0,0.0,4.0,77,0.00,,,0.88,,2013-03-11 08:52:00,
2013-03-11 04:02:00,34.0,28.0,29.58,North,0,0.0,4.0,77,0.00,,,0.88,,2013-03-11 09:02:00,
2013-03-11 04:12:00,34.0,28.0,29.58,North,0,0.0,4.0,77,0.00,,,0.88,,2013-03-11 09:12:00,
2013-03-11 04:22:00,34.0,28.0,29.57,North,0,0.0,5.0,77,0.00,,,0.86,,2013-03-11 09:22:00,
2013-03-11 04:32:00,33.0,27.0,29.57,NW,304,1.0,5.0,77,0.01,,,0.83,,2013-03-11 09:32:00,
2013-03-11 04:42:00,33.0,27.0,29.57,NW,304,1.0,5.0,77,0.01,,,0.83,,2013-03-11 09:42:00,
2013-03-11 04:52:00,33.0,27.0,29.57,WNW,303,1.0,5.0,77,0.01,,,0.81,,2013-03-11 09:52:00,
2013-03-11 05:02:00,33.0,27.0,29.57,North,0,0.0,1.0,77,0.01,,,0.80,,2013-03-11 10:02:00,
2013-03-11 05:12:00,33.0,27.0,29.57,North,0,0.0,1.0,77,0.01,,,0.80,,2013-03-11 10:12:00,
2013-03-11 05:22:00,33.0,27.0,29.57,North,0,0.0,0.0,77,0.01,,,0.79,,2013-03-11 10:22:00,
2013-03-11 05:32:00,33.0,27.0,29.58,North,0,0.0,5.0,77,0.01,,,0.78,,2013-03-11 10:32:00,
2013-03-11 05:42:00,33.0,27.0,29.58,North,0,0.0,5.0,77,0.01,,,0.78,,2013-03-11 10:42:00,
2013-03-11 05:52:00,33.0,27.0,29.58,North,0,0.0,2.0,77,0.00,,,0.76,,2013-03-11 10:52:00,
2013-03-11 06:02:00,33.0,27.0,29.58,North,0,0.0,3.0,77,0.00,,,0.75,,2013-03-11 11:02:00,
2013-03-11 06:12:00,33.0,27.0,29.58,North,0,0.0,3.0,77,0.00,,,0.75,,2013-03-11 11:12:00,
2013-03-11 06:22:00,33.0,27.0,29.58,North,0,0.0,4.0,77,0.00,,,0.74,,2013-03-11 11:22:00,
2013-03-11 06:32:00,33.0,27.0,29.58,North,0,0.0,2.0,77,0.00,,,0.73,,2013-03-11 11:32:00,
2013-03-11 06:42:00,33.0,27.0,29.58,North,0,0.0,2.0,77,0.00,,,0.73,,2013-03-11 11:42:00,
2013-03-11 06:53:00,33.0,27.0,29.59,North,0,0.0,1.0,77,0.00,,,0.71,,2013-03-11 11:53:00,
2013-03-11 07:02:00,33.0,27.0,29.60,North,0,0.0,2.0,78,0.00,,,0.69,,2013-03-11 12:02:00,
2013-03-11 07:12:00,33.0,27.0,29.60,North,0,0.0,2.0,78,0.00,,,0.69,,2013-03-11 12:12:00,
2013-03-11 07:22:00,33.0,27.0,29.60,North,0,0.0,4.0,77,0.00,,,0.67,,2013-03-11 12:22:00,
2013-03-11 07:32:00,33.0,27.0,29.61,North,0,0.0,2.0,78,0.00,,,0.64,,2013-03-11 12:32:00,
2013-03-11 07:42:00,33.0,27.0,29.61,North,0,0.0,2.0,78,0.00,,,0.64,,2013-03-11 12:42:00,
2013-03-11 07:53:00,33.0,27.0,29.61,North,0,0.0,4.0,78,0.00,,,0.63,,2013-03-11 12:53:00,
2013-03-11 08:02:00,33.0,27.0,29.61,North,0,0.0,0.0,78,0.00,,,0.63,,2013-03-11 13:02:00,
2013-03-11 08:12:00,33.0,27.0,29.61,North,0,0.0,0.0,78,0.00,,,0.63,,2013-03-11 13:12:00,
2013-03-11 08:22:00,33.0,27.0,29.61,North,0,0.0,0.0,78,0.00,,,0.63,,2013-03-11 13:22:00,
2013-03-11 08:32:00,33.0,27.0,29.60,North,0,0.0,1.0,78,0.00,,,0.61,,2013-03-11 13:32:00,
2013-03-11 08:42:00,33.0,27.0,29.60,North,0,0.0,1.0,78,0.00,,,0.61,,2013-03-11 13:42:00,
2013-03-11 08:53:00,33.0,27.0,29.59,North,0,0.0,1.0,78,0.00,,,0.61,,2013-03-11 13:53:00,
2013-03-11 09:02:00,33.0,27.0,29.60,North,0,0.0,2.0,78,0.00,,,0.60,,2013-03-11 14:02:00,
2013-03-11 09:12:00,33.0,27.0,29.60,North,0,0.0,2.0,78,0.00,,,0.60,,2013-03-11 14:12:00,
2013-03-11 09:22:00,33.0,27.0,29.60,North,0,0.0,2.0,78,0.00,,,0.60,,2013-03-11 14:22:00,
2013-03-11 09:32:00,33.0,27.0,29.58,North,0,0.0,2.0,78,0.00,,,0.59,,2013-03-11 14:32:00,
2013-03-11 09:42:00,33.0,27.0,29.58,North,0,0.0,2.0,78,0.00,,,0.59,,2013-03-11 14:42:00,
2013-03-11 09:53:00,34.0,28.0,29.59,North,0,0.0,1.0,78,0.00,,,0.59,,2013-03-11 14:53:00,
2013-03-11 10:02:00,34.0,28.0,29.58,North,0,0.0,4.0,78,0.00,,,0.58,,2013-03-11 15:02:00,
2013-03-11 10:12:00,34.0,28.0,29.58,North,0,0.0,4.0,78,0.00,,,0.58,,2013-03-11 15:12:00,
2013-03-11 10:22:00,34.0,28.0,29.57,North,0,0.0,3.0,78,0.00,,,0.56,,2013-03-11 15:22:00,
2013-03-11 10:32:00,34.0,28.0,29.57,WNW,300,1.0,4.0,78,0.00,,,0.55,,2013-03-11 15:32:00,
2013-03-11 10:42:00,34.0,28.0,29.57,WNW,300,1.0,4.0,78,0.00,,,0.55,,2013-03-11 15:42:00,
2013-03-11 10:53:00,34.0,28.0,29.56,North,0,0.0,1.0,78,0.00,,,0.55,,2013-03-11 15:53:00,
2013-03-11 11:02:00,34.0,28.0,29.57,North,0,0.0,5.0,78,0.00,,,0.55,,2013-03-11 16:02:00,
2013-03-11 11:12:00,34.0,28.0,29.57,North,0,0.0,5.0,78,0.00,,,0.55,,2013-03-11 16:12:00,
2013-03-11 11:22:00,34.0,28.0,29.57,North,0,0.0,3.0,78,0.00,,,0.55,,2013-03-11 16:22:00,
2013-03-11 11:32:00,34.0,28.0,29.56,North,0,0.0,2.0,78,0.00,,,0.55,,2013-03-11 16:32:00,
2013-03-11 11:42:00,34.0,28.0,29.56,North,0,0.0,2.0,78,0.00,,,0.55,,2013-03-11 16:42:00,
2013-03-11 11:52:00,34.0,28.0,29.55,WNW,300,1.0,5.0,78,0.00,,,0.55,,2013-03-11 16:52:00,
2013-03-11 12:02:00,34.0,28.0,29.56,West,281,4.0,7.0,78,0.00,,,0.54,,2013-03-11 17:02:00,
2013-03-11 12:14:00,34.0,28.0,29.56,West,281,4.0,7.0,78,0.00,,,0.54,,2013-03-11 17:14:00,
2013-03-11 12:25:00,34.0,28.0,29.55,WNW,293,1.0,8.0,78,0.00,,,0.54,,2013-03-11 17:25:00,
2013-03-11 12:34:00,34.0,28.0,29.55,WNW,303,1.0,8.0,78,0.00,,,0.54,,2013-03-11 17:34:00,
2013-03-11 12:42:00,34.0,28.0,29.55,WNW,303,1.0,8.0,78,0.00,,,0.54,,2013-03-11 17:42:00,
2013-03-11 12:53:00,34.0,28.0,29.54,WNW,301,3.0,7.0,78,0.00,,,0.54,,2013-03-11 17:53:00,
2013-03-11 13:02:00,34.0,28.0,29.55,WNW,284,1.0,7.0,78,0.00,,,0.54,,2013-03-11 18:02:00,
2013-03-11 13:12:00,34.0,28.0,29.55,WNW,284,1.0,7.0,78,0.00,,,0.54,,2013-03-11 18:12:00,
2013-03-11 13:22:00,34.0,28.0,29.54,North,0,0.0,4.0,77,0.01,,,0.55,,2013-03-11 18:22:00,
2013-03-11 13:32:00,34.0,28.0,29.54,West,278,1.0,7.0,77,0.01,,,0.55,,2013-03-11 18:32:00,
2013-03-11 13:42:00,34.0,28.0,29.54,West,278,1.0,7.0,77,0.01,,,0.55,,2013-03-11 18:42:00,
2013-03-11 13:53:00,34.0,28.0,29.54,North,0,0.0,6.0,77,0.01,,,0.55,,2013-03-11 18:53:00,
2013-03-11 14:02:00,34.0,28.0,29.53,WNW,288,3.0,7.0,77,0.01,,,0.55,,2013-03-11 19:02:00,
2013-03-11 14:12:00,34.0,28.0,29.53,WNW,288,3.0,7.0,77,0.01,,,0.55,,2013-03-11 19:12:00,
2013-03-11 14:22:00,34.0,28.0,29.54,WNW,286,2.0,6.0,77,0.02,,,0.56,,2013-03-11 19:22:00,
2013-03-11 14:32:00,34.0,28.0,29.54,West,265,1.0,6.0,77,0.01,,,0.55,,2013-03-11 19:32:00,
2013-03-11 14:42:00,34.0,28.0,29.54,West,265,1.0,6.0,77,0.01,,,0.55,,2013-03-11 19:42:00,
2013-03-11 14:53:00,34.0,28.0,29.53,West,261,3.0,6.0,77,0.01,,,0.54,,2013-03-11 19:53:00,
2013-03-11 15:02:00,34.0,28.0,29.53,West,260,1.0,6.0,77,0.01,,,0.53,,2013-03-11 20:02:00,
2013-03-11 15:12:00,34.0,28.0,29.53,West,260,1.0,6.0,77,0.01,,,0.53,,2013-03-11 20:12:00,
2013-03-11 15:22:00,34.0,27.0,29.53,West,267,2.0,5.0,76,0.01,,,0.52,,2013-03-11 20:22:00,
2013-03-11 15:32:00,34.0,27.0,29.53,West,265,1.0,6.0,76,0.01,,,0.50,,2013-03-11 20:32:00,
2013-03-11 15:43:00,34.0,27.0,29.53,West,265,1.0,6.0,76,0.01,,,0.50,,2013-03-11 20:43:00,
2013-03-11 15:53:00,34.0,27.0,29.53,West,260,2.0,5.0,76,0.02,,,0.50,,2013-03-11 20:53:00,
2013-03-11 16:02:00,34.0,27.0,29.53,West,279,3.0,8.0,76,0.02,,,0.49,,2013-03-11 21:02:00,
2013-03-11 16:12:00,34.0,27.0,29.53,West,279,3.0,8.0,76,0.02,,,0.49,,2013-03-11 21:12:00,
2013-03-11 16:22:00,34.0,28.0,29.54,West,259,2.0,7.0,77,0.02,,,0.48,,2013-03-11 21:22:00,
2013-03-11 16:32:00,34.0,28.0,29.54,West,275,3.0,10.0,77,0.03,,,0.47,,2013-03-11 21:32:00,
2013-03-11 16:43:00,34.0,28.0,29.54,West,275,3.0,10.0,77,0.03,,,0.47,,2013-03-11 21:43:00,
2013-03-11 16:53:00,34.0,28.0,29.54,West,275,3.0,9.0,77,0.02,,,0.46,,2013-03-11 21:53:00,
2013-03-11 17:02:00,34.0,27.0,29.55,West,266,3.0,9.0,76,0.01,,,0.44,,2013-03-11 22:02:00,
2013-03-11 17:12:00,34.0,27.0,29.55,West,266,3.0,9.0,76,0.01,,,0.44,,2013-03-11 22:12:00,
2013-03-11 17:22:00,34.0,27.0,29.55,West,281,4.0,10.0,76,0.01,,,0.41,,2013-03-11 22:22:00,
2013-03-11 17:32:00,34.0,27.0,29.56,West,265,2.0,6.0,76,0.00,,,0.38,,2013-03-11 22:32:00,
2013-03-11 17:43:00,34.0,27.0,29.56,West,265,2.0,6.0,76,0.00,,,0.38,,2013-03-11 22:43:00,
2013-03-11 17:53:00,34.0,27.0,29.56,West,265,2.0,6.0,76,0.00,,,0.38,,2013-03-11 22:53:00,
2013-03-11 18:02:00,34.0,27.0,29.57,WSW,258,2.0,11.0,76,0.00,,,0.34,,2013-03-11 23:02:00,
2013-03-11 18:12:00,34.0,27.0,29.57,WSW,258,2.0,11.0,76,0.00,,,0.34,,2013-03-11 23:12:00,
2013-03-11 18:22:00,34.0,27.0,29.58,West,272,4.0,11.0,76,0.00,,,0.31,,2013-03-11 23:22:00,
2013-03-11 18:32:00,33.0,26.0,29.59,West,267,3.0,9.0,75,0.00,,,0.30,,2013-03-11 23:32:00,
2013-03-11 18:43:00,33.0,26.0,29.59,West,267,3.0,9.0,75,0.00,,,0.30,,2013-03-11 23:43:00,
2013-03-11 18:53:00,33.0,26.0,29.60,West,264,4.0,9.0,75,0.00,,,0.30,,2013-03-11 23:53:00,
2013-03-11 19:02:00,33.0,26.0,29.60,West,264,4.0,9.0,75,0.00,,,0.30,,2013-03-12 00:02:00,
2013-03-11 19:12:00,33.0,26.0,29.60,West,264,4.0,9.0,75,0.00,,,0.30,,2013-03-12 00:12:00,
2013-03-11 19:22:00,33.0,26.0,29.62,West,272,4.0,11.0,75,0.00,,,0.30,,2013-03-12 00:22:00,
2013-03-11 19:33:00,33.0,26.0,29.62,West,277,6.0,12.0,74,0.00,,,0.30,,2013-03-12 00:33:00,
2013-03-11 19:43:00,33.0,26.0,29.62,West,277,6.0,12.0,74,0.00,,,0.30,,2013-03-12 00:43:00,
2013-03-11 19:53:00,32.0,25.0,29.63,West,276,4.0,11.0,74,0.00,,,0.29,,2013-03-12 00:53:00,
2013-03-11 20:02:00,32.0,24.0,29.64,West,281,7.0,13.0,72,0.00,,,0.28,,2013-03-12 01:02:00,
2013-03-11 20:12:00,32.0,24.0,29.64,West,281,7.0,13.0,72,0.00,,,0.28,,2013-03-12 01:12:00,
2013-03-11 20:22:00,32.0,24.0,29.64,West,281,7.0,13.0,72,0.00,,,0.28,,2013-03-12 01:22:00,
2013-03-11 20:32:00,32.0,24.0,29.66,WNW,292,5.0,9.0,73,0.00,,,0.25,,2013-03-12 01:32:00,
2013-03-11 20:42:00,32.0,24.0,29.66,WNW,292,5.0,9.0,73,0.00,,,0.25,,2013-03-12 01:42:00,
2013-03-11 20:52:00,32.0,24.0,29.67,West,278,5.0,12.0,73,0.00,,,0.20,,2013-03-12 01:52:00,
2013-03-11 21:02:00,31.0,23.0,29.67,West,271,5.0,12.0,73,0.00,,,0.17,,2013-03-12 02:02:00,
2013-03-11 21:12:00,31.0,23.0,29.67,West,271,5.0,12.0,73,0.00,,,0.17,,2013-03-12 02:12:00,
2013-03-11 21:22:00,31.0,23.0,29.67,West,271,5.0,12.0,73,0.00,,,0.17,,2013-03-12 02:22:00,
2013-03-11 21:32:00,32.0,24.0,29.68,WNW,294,6.0,12.0,71,0.00,,,0.12,,2013-03-12 02:32:00,
2013-03-11 21:42:00,32.0,24.0,29.68,WNW,294,6.0,12.0,71,0.00,,,0.12,,2013-03-12 02:42:00,
2013-03-11 21:52:00,31.0,23.0,29.68,WNW,292,4.0,12.0,71,0.00,,,0.12,,2013-03-12 02:52:00,
2013-03-11 22:02:00,31.0,23.0,29.69,WNW,286,7.0,11.0,71,0.00,,,0.11,,2013-03-12 03:02:00,
2013-03-11 22:12:00,31.0,23.0,29.69,WNW,286,7.0,11.0,71,0.00,,,0.11,,2013-03-12 03:12:00,
2013-03-11 22:22:00,31.0,23.0,29.70,WNW,294,3.0,14.0,72,0.00,,,0.10,,2013-03-12 03:22:00,
2013-03-11 22:32:00,31.0,23.0,29.70,West,269,2.0,9.0,73,0.00,,,0.10,,2013-03-12 03:32:00,
2013-03-11 22:42:00,31.0,23.0,29.70,West,269,2.0,9.0,73,0.00,,,0.10,,2013-03-12 03:42:00,
2013-03-11 22:53:00,31.0,23.0,29.70,WNW,283,3.0,9.0,73,0.00,,,0.09,,2013-03-12 03:53:00,
2013-03-11 23:02:00,30.0,22.0,29.71,WNW,289,6.0,15.0,73,0.00,,,0.09,,2013-03-12 04:02:00,
2013-03-11 23:12:00,30.0,22.0,29.71,WNW,289,6.0,15.0,73,0.00,,,0.09,,2013-03-12 04:12:00,
2013-03-11 23:22:00,30.0,22.0,29.71,WNW,289,6.0,15.0,73,0.00,,,0.09,,2013-03-12 04:22:00,
2013-03-11 23:32:00,30.0,22.0,29.72,West,274,8.0,14.0,71,0.00,,,0.08,,2013-03-12 04:32:00,
2013-03-11 23:42:00,30.0,22.0,29.72,West,274,8.0,14.0,71,0.00,,,0.08,,2013-03-12 04:42:00,
2013-03-11 23:52:00,30.0,22.0,29.72,West,267,8.0,19.0,71,0.00,,,0.08,,2013-03-12 04:52:00,